Regional Weather Roundup
Issued by NWS Upton, NY

Current Version | Previous Version | Text Only | Print | Product List | Glossary On
Versions: 1 2 3 4 5 6 7 8 9 10 11 12 13 14 15 16 17 18 19 20 21 22 23 24 25 26 27 28 29 30 31 32 33 34 35 36 37 38 39 40 41 42 43 44 45 46 47 48 49 50
000 ASUS41 KOKX 282208 RWROKX REGIONAL WEATHER ROUNDUP NATIONAL WEATHER SERVICE NEW YORK NY 600 PM EDT TUE JUL 28 2015 NOTE: "FAIR" INDICATES FEW OR NO CLOUDS BELOW 12,000 FEET WITH NO SIGNIFICANT WEATHER AND/OR OBSTRUCTIONS TO VISIBILITY. NYZ071-072-176-178-NJZ106-104-282300- NEW YORK CITY METRO AREA CITY SKY/WX TMP DP RH WIND PRES REMARKS CENTRAL PARK MOSUNNY 88 66 48 CALM 29.97S HX 90 LAGUARDIA APRT PTSUNNY 89 64 43 S9 29.93F HX 90 KENNEDY INTL PTSUNNY 84 72 67 S16 29.95F NEWARK/LIBERTY MOSUNNY 90 66 45 S9 29.93F HX 92 BRNX BOT. GARD N/A 90 66 45 SE3 29.94F HX 92 TETERBORO SUNNY 94 57 28 CALM 29.91F HX 92 $$ NYZ177-179-078>081-282300- LONG ISLAND NEW YORK CITY SKY/WX TMP DP RH WIND PRES REMARKS FARMINGDALE SUNNY 85 70 60 SW12 29.95F ISLIP PTSUNNY 86 67 52 SW12 29.93F SHIRLEY MOSUNNY 86 70 58 SW9 29.95F HX 90 WESTHAMPTON MOSUNNY 84 69 60 SW9 29.96S MONTAUK POINT N/A 82 71 69 SW5 29.95S $$ NYZ052-065-067-282300- HUDSON VALLEY CITY SKY/WX TMP DP RH WIND PRES REMARKS WHITE PLAINS MOSUNNY 89 61 38 NW3 29.95F NEWBURGH MOSUNNY 90 64 43 CALM 29.96F HX 91 MONTGOMERY SUNNY 91 63 39 SW3 29.94F HX 92 POUGHKEEPSIE MOSUNNY 92 61 35 CALM 29.92F HX 92 ALBANY PTSUNNY 82 66 58 CALM 29.95S $$ NJZ001-105-106-008-010-013-015-019>022-104-282300- NEW JERSEY CITY SKY/WX TMP DP RH WIND PRES REMARKS NEWARK/LIBERTY MOSUNNY 90 66 45 S9 29.93F HX 92 TETERBORO SUNNY 94 57 28 CALM 29.91F HX 92 CALDWELL SUNNY 93 56 28 NW5 29.94F HX 91 MORRISTOWN MOSUNNY 91 61 35 N3 29.95S HX 91 SOMERVILLE SUNNY 93 58 30 NW5 29.92F HX 92 SUSSEX SUNNY 89 60 37 CALM 29.96F ANDOVER N/A 90 62 39 VRB3 29.97F HX 90 TRENTON SUNNY 93 59 31 N6 29.94S HX 92 MILLVILLE SUNNY 87 72 60 SW6 29.96S HX 93 ATLANTIC CITY HVY RAIN 77 73 87 W7 29.98R VSB 1 WRIGHTSTOWN MOSUNNY 87 75 67 S9 29.92S HX 95 TOMS RIVER SUNNY 84 73 70 S10 29.96S HX 91 BELMAR MOSUNNY 84 70 61 S8 29.96S $$ PAZ047>061-062-071-282300- EASTERN PENNSYLVANIA CITY SKY/WX TMP DP RH WIND PRES REMARKS PHILADELPHIA MOSUNNY 91 68 46 SW9 29.95S HX 95 ALLENTOWN SUNNY 90 61 37 N5 29.96S HX 90 SCRANTON SUNNY 89 61 38 VRB7 29.98F $$ CTZ002-004>006-009-010-012-RIZ004-006-007-MAZ004-011-015-282300- SOUTHERN NEW ENGLAND IN CT CITY SKY/WX TMP DP RH WIND PRES REMARKS BRADLEY INTL PTSUNNY 91 65 41 NW10 29.91S HX 93 HARTFORD MOSUNNY 91 60 35 NW9G16 29.91S HX 90 DANBURY MOSUNNY 87 61 41 VRB5 29.96F WTRBRY/OXFORD PTSUNNY 84 64 51 NW5 29.99F BRIDGEPORT MOSUNNY 89 66 46 SW9 29.93F HX 91 MERIDEN MOSUNNY 92 61 35 NW9 29.92F HX 92 NEW HAVEN MOSUNNY 87 67 51 SW6 29.93S HX 90 CHESTER FAIR 82 70 65 SW5 29.95S GROTON MOSUNNY 84 68 58 SW9 29.92S WILLIMANTIC MOSUNNY 89 67 47 NE7 29.92S HX 92 IN RI CITY SKY/WX TMP DP RH WIND PRES REMARKS PROVIDENCE PTSUNNY 78 66 66 E5 29.94S THUNDER BLOCK ISLAND MOSUNNY 79 72 78 SW14G20 29.95F WESTERLY MOSUNNY 82 71 69 SW7 29.94R IN MA CITY SKY/WX TMP DP RH WIND PRES REMARKS BOSTON PTSUNNY 76 70 82 SE9 29.94R WORCESTER MOSUNNY 79 63 57 CALM 29.98F WESTFIELD MOSUNNY 88 65 46 NW7 29.92S HX 90 PROVINCETOWN MOSUNNY 79 68 69 SE6 29.94F NANTUCKET CLOUDY 73 70 90 SW7 29.96S $$ ANZ330-335-338-340-345-350-353-355-282300- COASTAL MARINE OBSERVATIONS STATION/POSITION TIME SKY/WX TEMP WIND PRES VSBY WAVE AIR SEA DIR/SP/G HT/PER (UTC) (F) (DEG/KT/KT) (MB) (MI) (FT/S) NY HARB ENTRANCE 2150 78 77 200/ 12/ 14 1013.7 2/ 8 4S FIRE IS NOT AVBL 20S FIRE ISLAND 2150 76 74 210/ 10/ 10 1014.0 2/ 9 GREAT SOUTH BAY 2100 79 81 240/ 10/ 14 N/A 23SW MTP 2150 76 75 240/ 12/ 12 1013.7 2/11 HUDSON CANYON NOT AVBL KINGS POINT 2100 89 77 360/ 2/ 3 1013.3 CENTRAL LI SOUND NOT AVBL EASTERN LI SOUND 2100 77 71 270/ 4/ 6 N/A ROBBINS REEF 2100 80 170/ 17/ 18 1012.6 $$ >>>>>>>>>>>>>>>>>>>>>>>>>>>> KEY <<<<<<<<<<<<<<<<<<<<<<<<<<< > < > SKY/WX - SKY CONDITION/PRESENT WEATHER < > TMP - TEMPERATURE IN FAHRENHEIT < > DP - DEWPOINT IN FAHRENHEIT < > RH - RELATIVE HUMIDITY IN PERCENT < > WIND - DIRECTION AND SPEED IN MPH < > PRES - MEAN SEA LEVEL PRESSURE IN INCHES OF HG < > WCI - WIND CHILL INDEX < > VSB - VISIBILITY IN MILES < > HX - HEAT INDEX < > TC - TEMPERATURE IN CELSIUS < > VRB - VARIABLE WIND DIRECTION < > < >>>>>>>>>>>>>>>>>>>>>>>>>>>> KEY <<<<<<<<<<<<<<<<<<<<<<<<<<<

USA.gov is the U.S. government's official web portal to all federal, state and local government web resources and services.